カタログに戻る

STARLINK-6206

運用中通信VLEO
NORAD 56876·PAYLOAD·🇺🇸 United States

打ち上げ Jun 12, 2023 から Cape Canaveral Space Force Station

Loading…

次のパス (今後24時間)

TLE

最新Source: CelesTrak SupGP

元期: Sep 15, 2026, 02:29 UTC

1 56876C 23083A   26258.10395833  .00024741  00000+0  89617-3 0  2582
2 56876  43.0018  95.7036 0001933 269.2688 187.8261 15.27563798    14

AllMySatでSTARLINK-6206をリアルタイム追跡

Download on the App Store